DELTA 2 R/B(1)

Satellite information

Favourite Embed

Satellite Type and Status

ROCKET BODYIN ORBIT

Key statistics

Satellite DELTA 2 R/B(1) at a glance.

Uptime

10384

Days in orbit

Revolutions

≈ 13.3

Per day

Orbit

LEO

Low Earth Orbit

Inclination

26.3

Latest

Satellite identification and parameters

Extended collection of information and parameters for DELTA 2 R/B(1).

Object identification

Identified? True

Debris? False

Object name: DELTA 2 R/B(1)

International designator: 1997-025B

Object number (NORAD): 24809

Object ID (CCSDS): 24809

Country: UNITED STATES OF AMERICA (US)

Current information (Y/N): Y

RCS size: LARGE

Orbital parameters

Period: 108.194 minutes

Inclination: 26.2941 deg

SMA: 7521.33 km

Apoapsis: 1641.37 km

Periapsis: 645.019 km

RAAN: 50.2142 deg

Eccentricy: 0.06623502

Argument of periapsis: 151.1491 deg

Mean anomaly: 212.7343 deg

Mean motion: 13.30947197 rev/day

Mean motion (dot): 0.00000569 rev/day2

B* drag term: 0.00026651222 1/REarth

Two-line elements (TLE)

Creation date: Oct. 24, 2025, 2:48 a.m.

Reference frame: TEME

Reference center: EARTH

Epoch: Oct. 23, 2025, 4:57 p.m. UTC

TLE line 0: 0 DELTA 2 R/B(1)

TLE line 1: 1 24809U 97025B 25296.70659169 .00000569 00000-0 26651-3 0 9996

TLE line 2: 2 24809 26.2941 50.2142 0662350 151.1491 212.7343 13.30947197382477

Live tracking on map

Real-time ground track for satellite DELTA 2 R/B(1).

In-orbit conjunctions

A list of the most updated potential collisions computed for object DELTA 2 R/B(1).

Target Orbit TCA Probability of collision Miss distance Type
FENGYUN 1C DEB SSO 2025-01-23 10:48:42 0.0001332252 606.0 (m) DEBRIS

Associated space launch

In November 1995, Hughes was awarded the contract for Thor 2, a high-powered version of Hughes' spin-stabilized HS-376 model. Thor 2 was successfully launched in May 1997.

DELTA 2 R/B(1) was lifted into orbit during the mission ‘Delta II | Thor II’, on board a Delta II space rocket.

The launch took place on May 20, 1997, 10:39 p.m. from Space Launch Complex 17A.

For more information about the launch, click the button.

Launch to space Delta II | Thor II
Delta II | Thor II

Agency: N/A

Status: Launch Successful

Launch date: May 20, 1997, 10:39 p.m. UTC

Rocket: Delta II

Launch pad: Space Launch Complex 17A

Location: Cape Canaveral SFS, FL, USA

...

Latest news about this satellite

There are no fresh news available about this satellite. Check back as we update our databases every day.


Newsletter sign-up

Weekly statistics, charts and insights to help you stay on top of the space industry.